CZ-6A DEB, 60901

Orbit data source: Space-Track

CZ-6A DEB, 60901 is space debris in LEO originally from a launch on Tue, 06 Aug 2024 UTC launched from the Taiyaun Space Center, China (TSC). Debris objects in space refer to the collection of defunct objects orbiting the Earth. Examples of debris include non-operational satellites, rocket bodies, and fragments generated from explosions, collisions, or faulty payload assembly.

Loading next visibility...
Identifier
60901, 2024-140LG
Orbit
LEO
Country
Flag of CNCN / PRC
Related business
Manufacturer
SAST
Mission
Spacecraft
Bus & Motor
Unknown
Mass
Unknown
Launch date (UTC)
2024-08-06 (2 years ago)
Launch vehicle
Unknown
Launch site
Taiyaun Space Center, China (TSC)
Object type
Payload
Rocket body
Debris
Shape & HBR
Unknown shape, 0.1 m
Radar Cross Section
Medium (>0.1 m² and <1 m²)

Expand to show TLE details & history
Last TLE update: 13 hours ago

TLE from 13 hours ago
0 CZ-6A DEB
1 60901U 24140LG  26171.28921550  .00004374  00000-0  92005-3 0  9993
2 60901  88.9747 268.0564 0072825 190.2246 169.7489 14.57734867 97361
Epoch: 2026-06-20T06:56Z
TLE epoch observation values (Epoch: 2026-06-20T06:56:28.219Z)
Latitude
Longitude
-104.56716°
Altitude
754.355 km
Speed
7.45 km/s
True Right ascension
17h 52m 13s
True Declination
0° 00' 00"
Sunlit
Object was in full shadow at epoch
Visualization orbit readout
Latitude
Unknown
Longitude
Unknown
Altitude
Unknown
Speed
Unknown
Apparent Right ascension
Unknown
Apparent Declination
Unknown
Sunlit
N/A
Visualization observer readout
Local Sidereal Time
07:19:12
Azimuth
Unknown
Elevation
Unknown
Doppler factor
Unknown
Orbital elements
Apogee altitude
748.922 km
Perigee altitude
645.867 km
Semi-major axis
7,075.532 km
Eccentricity
0.00728
Inclination
88.9747°
RAAN
268.0564°
Arg. of periapsis
190.2246°
True anomaly
169.89609°
Mean anomaly
169.7489°
Eccentric anomaly
169.82263°
Mean motion
3.64674 °/min
Orbital period
98.72 mins
BSTAR
0.00092005
Loading maneuver chart data...
Computing Atmospheric mass density...
Loading historical data...
Loading historical data...
Loading historical data...
Loading historical data...
Loading historical data...
Loading historical data...
Loading historical data...

Documentation

Showing up to 5 results
|